DW9872 Weather Reports


time (UTC)temp
C
wind
direction
speed
KPH
gust
KPH
rain 1hr
cm
rain 24hr
cm
rain mn
cm
humidity
%
barometer
mb
20260510120016 11 0.0 0.0 0.00 0.10 0.00 97 1012.7
20260510113016 11 0.0 0.0 0.00 0.10 0.00 96 1012.2
20260510110017 11 0.0 0.0 0.00 0.10 0.00 96 1011.4
20260510103036 10 0.0 0.0 0.00 0.10 0.00 96 1011.6
20260510100016 10 0.0 0.0 0.00 0.10 0.00 96 1011.7
20260510093017 10 0.0 0.0 0.00 0.10 0.00 96 1011.0
20260510090016 11 0.0 0.0 0.00 0.10 0.00 96 1011.0
20260510083017 11 0.0 0.0 0.00 0.10 0.00 96 1010.8
20260510080036 10 0.0 0.0 0.00 0.10 0.00 96 1011.0
20260510073016 10 0.0 0.0 0.00 0.10 0.00 97 1011.1
20260510070016 10 0.0 0.0 0.00 0.10 0.00 95 1010.3
20260510063017 9 0.0 0.0 0.00 0.10 0.00 96 1010.4
20260510060016 10 0.0 0.0 0.00 0.10 0.00 96 1010.9
20260510053037 9 0.0 0.0 0.00 0.10 0.00 94 1010.3
20260510050037 9 0.0 0.0 0.00 0.10 0.00 94 1010.3
20260510043016 10 0.0 0.0 0.00 0.10 0.00 94 1010.5
20260510040016 10 0.0 0.0 0.00 0.10 0.10 94 1010.6
20260510033016 11 0.0 0.0 0.00 0.10 0.10 93 1010.7
20260510030036 11 0.0 0.0 0.00 0.10 0.10 93 1010.5
20260510023016 11 0.0 0.0 0.00 0.10 0.10 93 1010.3
20260510020016 12 0.0 0.0 0.00 0.10 0.10 91 1010.2
20260510013016 12 0.0 0.0 0.00 0.10 0.10 92 1010.1
20260510010016 13 0.0 0.0 0.00 0.10 0.10 89 1009.8
20260510003016 13 0.0 0.0 0.00 0.10 0.10 87 1009.5
20260510000017 15 0.0 0.0 0.00 0.10 0.10 84 1009.1
20260509233016 15 0.0 0.0 0.00 0.10 0.10 79 1009.1
20260509230016 15 0.0 0.0 0.00 0.10 0.10 79 1009.3
20260509223016 15 0.0 4.8 0.00 0.10 0.10 78 1009.0
20260509220036 15 0.0 3.2 0.00 0.10 0.10 79 1009.1
20260509213016 15 0.0 0.0 0.00 0.10 0.10 80 1009.1
20260509210016 15 0.0 1.6 0.00 0.10 0.10 82 1009.4
20260509203016 15 0.0 0.0 0.00 0.10 0.10 80 1009.7
20260509200016 15 0.0 0.0 0.00 0.10 0.10 82 1009.8
20260509193016 14 0.0 0.0 0.03 0.10 0.10 86 1010.0
20260509190016 13 0.0 0.0 0.03 0.10 0.10 89 1010.4
20260509183016 13 0.0 0.0 0.00 0.08 0.08 87 1011.2
20260509180016 13 0.0 0.0 0.00 0.08 0.08 87 1011.1
20260509173016 13 0.0 9.7 0.00 0.08 0.08 86 1011.1
20260509170016 13 0.0 0.0 0.05 0.08 0.08 87 1010.7
20260509163016 14 0.0 8.0 0.08 0.08 0.08 87 1011.0
20260509160016 15 0.0 6.4 0.03 0.03 0.03 85 1011.6
20260509153016 15 0.0 4.8 0.00 0.00 0.00 80 1011.8
20260509150017 15 0.0 4.8 0.00 0.00 0.00 79 1011.6
20260509143016 14 0.0 0.0 0.00 0.00 0.00 77 1011.3
20260509140016 14 0.0 0.0 0.00 0.00 0.00 78 1011.1
20260509133016 14 0.0 0.0 0.00 0.00 0.00 78 1011.1
20260509130016 13 0.0 0.0 0.00 0.00 0.00 78 1011.0
20260509123016 13 0.0 0.0 0.00 0.00 0.00 79 1011.1